This demonstration page uses our WeatherBlox Daily Observations layout. Learn more.

Left ArrowRight Arrow

Hourly Observations for September 27, 2018

Temp ( °F °C ) Dew Point ( °F °C ) Humidity (%) Winds ( mph kmh ) Pressure ( in mb ) Visibility ( mi km ) Precip ( " mm )
12:15 am 00:15 Partly Cloudy 66 19 64 18 94 94 NNW 8 13 30.06 1018 10 16 0.00 0.00
12:35 am 00:35 Partly Cloudy 64 18 64 18 100 100 N 7 11 30.06 1018 10 16 0.00 0.00
12:55 am 00:55 Partly Cloudy with Light Rain 64 18 64 18 100 100 N 6 9 30.06 1018 10 16 0.00 0.00
1:15 am 01:15 Partly Cloudy 64 18 64 18 100 100 N 8 13 30.06 1018 10 16 0.00 0.00
1:35 am 01:35 Partly Cloudy 64 18 63 17 94 94 N 9 15 30.06 1018 10 16 0.00 0.00
1:55 am 01:55 Mostly Cloudy 64 18 63 17 94 94 N 9 15 30.06 1018 10 16 0.00 0.00
2:15 am 02:15 Cloudy 64 18 61 16 88 88 NNW 9 15 30.06 1018 10 16 0.00 0.00
2:35 am 02:35 Cloudy 64 18 61 16 88 88 NNW 12 19 30.06 1018 10 16 0.00 0.00
2:55 am 02:55 Cloudy 64 18 59 15 83 83 NNW 13 20 30.06 1018 10 16 0.00 0.00
3:15 am 03:15 Cloudy 63 17 59 15 88 88 N 8 13 30.06 1018 10 16 0.00 0.00
3:35 am 03:35 Cloudy 63 17 57 14 83 83 NNW 12 19 30.09 1019 10 16 0.00 0.00
3:55 am 03:55 Cloudy 63 17 55 13 77 77 N 10 17 30.09 1019 10 16 0.00 0.00
4:15 am 04:15 Cloudy 63 17 55 13 77 77 NNE 7 11 30.09 1019 10 16 0.00 0.00
4:35 am 04:35 Cloudy 63 17 55 13 77 77 N 6 9 30.09 1019 10 16 0.00 0.00
4:55 am 04:55 Cloudy 63 17 55 13 77 77 N 8 13 30.09 1019 10 16 0.00 0.00
5:15 am 05:15 Cloudy 63 17 55 13 77 77 N 6 9 30.12 1020 10 16 0.00 0.00
5:35 am 05:35 Cloudy 63 17 55 13 77 77 N 6 9 30.12 1020 10 16 0.00 0.00
5:55 am 05:55 Cloudy 63 17 55 13 77 77 N 3 6 30.12 1020 10 16 0.00 0.00
6:15 am 06:15 Cloudy 63 17 55 13 77 77 N 5 7 30.15 1021 10 16 0.00 0.00
6:35 am 06:35 Cloudy 63 17 55 13 77 77 N 7 11 30.15 1021 10 16 0.00 0.00
6:55 am 06:55 Cloudy 63 17 55 13 77 77 N 7 11 30.15 1021 10 16 0.00 0.00
7:15 am 07:15 Cloudy 63 17 55 13 77 77 NNE 6 9 30.15 1021 10 16 0.00 0.00
7:35 am 07:35 Cloudy with Light Rain 63 17 57 14 83 83 NNE 7 11 30.15 1021 10 16 0.00 0.00
7:55 am 07:55 Cloudy 63 17 57 14 83 83 NNE 7 11 30.15 1021 10 16 0.00 0.00
8:15 am 08:15 Cloudy 63 17 57 14 83 83 NNE 7 11 30.18 1022 10 16 0.00 0.00
8:35 am 08:35 Cloudy 63 17 57 14 83 83 NNE 7 11 30.18 1022 10 16 0.00 0.00
8:55 am 08:55 Cloudy 63 17 57 14 83 83 NNE 6 9 30.18 1022 10 16 0.00 0.00
9:15 am 09:15 Cloudy 63 17 57 14 83 83 NNE 6 9 30.18 1022 10 16 0.00 0.00
9:35 am 09:35 Cloudy 63 17 59 15 88 88 NE 6 9 30.18 1022 10 16 0.00 0.00
9:55 am 09:55 Cloudy 63 17 59 15 88 88 NE 5 7 30.18 1022 10 16 0.00 0.00
10:15 am 10:15 Cloudy with Drizzle 63 17 59 15 88 88 NE 7 11 30.18 1022 10 16 0.00 0.00
10:35 am 10:35 Cloudy 64 18 59 15 83 83 ENE 6 9 30.18 1022 10 16 0.00 0.00
10:55 am 10:55 Cloudy 64 18 59 15 83 83 ENE 8 13 30.18 1022 10 16 0.00 0.00
11:15 am 11:15 Cloudy 64 18 55 13 73 73 ENE 7 11 30.18 1022 10 16 0.00 0.00
11:35 am 11:35 Cloudy 64 18 55 13 73 73 E 5 7 30.18 1022 10 16 0.00 0.00
11:55 am 11:55 Cloudy with Light Rain 64 18 55 13 73 73 ENE 3 6 30.18 1022 10 16 0.00 0.00
12:15 pm 12:15 Cloudy with Drizzle 63 17 55 13 77 77 Calm 30.18 1022 10 16 0.00 0.00
12:35 pm 12:35 Cloudy with Light Rain 63 17 55 13 77 77 ENE 5 7 30.18 1022 10 16 0.00 0.00
12:55 pm 12:55 Cloudy with Light Rain 63 17 54 12 73 73 NE 6 9 30.18 1022 10 16 0.00 0.00
1:15 pm 13:15 Cloudy with Light Rain 61 16 54 12 77 77 NNE 5 7 30.18 1022 5 8 0.01 0.25
1:35 pm 13:35 Cloudy with Rain 59 15 55 13 88 88 N 5 7 30.15 1021 7 11 0.02 0.51
1:55 pm 13:55 Cloudy with Light Rain 55 13 55 13 100 100 NNE 6 9 30.15 1021 7 11 0.06 1.52
2:15 pm 14:15 Cloudy with Rain 55 13 55 13 100 100 N 3 6 30.15 1021 7 11 0.01 0.25
2:35 pm 14:35 Cloudy with Rain 55 13 55 13 100 100 NNE 5 7 30.15 1021 5 8 0.02 0.51
2:55 pm 14:55 Cloudy with Rain 55 13 55 13 100 100 NNE 3 6 30.12 1020 4 6 0.05 1.27
3:15 pm 15:15 Cloudy with Rain 55 13 55 13 100 100 Calm 30.12 1020 3 4 0.04 1.02
3:35 pm 15:35 Cloudy with Rain 54 12 54 12 100 100 ENE 5 7 30.12 1020 3 5 0.09 2.29
3:55 pm 15:55 Cloudy with Rain 54 12 54 12 100 100 ENE 6 9 30.12 1020 3 5 0.11 2.79
4:15 pm 16:15 Cloudy with Rain 54 12 54 12 100 100 NE 8 13 30.09 1019 3 5 0.03 0.76
4:35 pm 16:35 Cloudy with Heavy Rain 54 12 54 12 100 100 ENE 7 11 30.09 1019 3 4 0.07 1.78
4:55 pm 16:55 Cloudy with Heavy Rain 54 12 54 12 100 100 NE 5 7 30.09 1019 2 3 0.13 3.30
5:15 pm 17:15 Cloudy with Rain 54 12 54 12 100 100 Calm 30.09 1019 3 5 0.05 1.27
5:35 pm 17:35 Cloudy with Rain 54 12 54 12 100 100 ENE 3 6 30.09 1019 3 5 0.09 2.29
5:55 pm 17:55 Cloudy with Heavy Rain 54 12 54 12 100 100 ENE 3 6 30.09 1019 2 3 0.17 4.32
6:15 pm 18:15 Cloudy with Heavy Rain 54 12 54 12 100 100 Calm 30.09 1019 2 3 0.08 2.03
6:35 pm 18:35 Cloudy with Rain 54 12 54 12 100 100 NNE 3 6 30.09 1019 4 6 0.14 3.56
6:55 pm 18:55 Cloudy with Light Rain 54 12 54 12 100 100 NE 6 9 30.06 1018 5 8 0.17 4.32
7:15 pm 19:15 Cloudy with Heavy Rain 54 12 54 12 100 100 Calm 30.09 1019 2 3 0.12 3.05
7:35 pm 19:35 Cloudy with Rain 54 12 54 12 100 100 NE 3 6 30.09 1019 5 8 0.14 3.56
7:55 pm 19:55 Cloudy with Light Rain 54 12 54 12 100 100 NE 5 7 30.09 1019 5 8 0.15 3.81
8:15 pm 20:15 Cloudy with Light Rain 54 12 54 12 100 100 NE 6 9 30.06 1018 5 8 0.00 0.00
8:35 pm 20:35 Cloudy with Drizzle 54 12 54 12 100 100 NE 6 9 30.06 1018 4 6 0.01 0.25
8:55 pm 20:55 Cloudy with Rain 54 12 54 12 100 100 NE 6 9 30.06 1018 4 6 0.03 0.76
9:15 pm 21:15 Cloudy with Rain 54 12 54 12 100 100 NE 5 7 30.06 1018 5 8 0.01 0.25
9:35 pm 21:35 Cloudy with Light Rain 54 12 54 12 100 100 NE 3 6 30.06 1018 4 6 0.03 0.76
9:55 pm 21:55 Cloudy with Heavy Rain 54 12 54 12 100 100 NE 5 7 30.06 1018 2 3 0.11 2.79
10:15 pm 22:15 Cloudy with Light Rain 54 12 54 12 100 100 NNE 5 7 30.06 1018 7 11 0.01 0.25
10:35 pm 22:35 Cloudy with Rain 54 12 54 12 100 100 N 5 7 30.06 1018 4 6 0.02 0.51
10:55 pm 22:55 Cloudy with Rain 54 12 54 12 100 100 N 6 9 30.03 1017 7 11 0.08 2.03
11:15 pm 23:15 Cloudy with Light Rain 52 11 52 11 100 100 NNW 8 13 30.03 1017 4 6 0.03 0.76
11:35 pm 23:35 Cloudy with Light Rain 52 11 52 11 100 100 N 7 11 30.03 1017 5 8 0.08 2.03
11:55 pm 23:55 Cloudy with Heavy Rain 52 11 52 11 100 100 NNW 10 17 30.06 1018 3 5 0.24 6.10

Powered by AerisWeather